Location: Berua Church
(35.0423°N, 88.5987°W)
Time: 12:14:47
(UTC+00:00)

CSL-04 Rocket - Pass Details

Date: 08 December 2019
Orbit: 807 x 859 km, 99.0° (Epoch: 23 January)

Event Time Altitude Azimuth Distance (km) Brightness Sun altitude
Rises 23:41:06 0° 137° (SE) 3,314 6.6 -11.8°
Reaches altitude 10° 23:43:42 10° 126° (SE) 2,384 5.7 -12.3°
Maximum altitude 23:48:08 28° 68° (ENE) 1,465 4.4 -13.2°
Drops below altitude 10° 23:52:35 10° 11° (N) 2,397 5.8 -14.0°
Sets 23:55:12 0° 360° (N) 3,335 6.6 -14.5°
